• In Hungary
  • List of Countries
  • For 7 days
  • Water Temperature
  • Satellite Maps
  • Weather Map
  • News
  • Weather Widgets
  • user-avatar
    Login

    Hourly Weather Mashkino

    Today, 16 August, Thursday

    Time Temperature Precipitation Wind Pressure Humidity
    00:00 +16°C° 0 mm 2 mps 739 mmHg 98%
    01:00 +16°C° 0 mm 2 mps 740 mmHg 98%
    02:00 +16°C° 0 mm 2 mps 740 mmHg 98%
    03:00 +15°C° 0 mm 2 mps 741 mmHg 98%
    04:00 +15°C° 0 mm 1 mps 741 mmHg 98%
    05:00 +15°C° 0 mm 1 mps 741 mmHg 98%
    06:00 +15°C° 0 mm 1 mps 742 mmHg 96%
    07:00 +16°C° 0 mm 2 mps 742 mmHg 94%
    08:00 +16°C° 0 mm 2 mps 743 mmHg 92%
    09:00 +17°C° 0 mm 2 mps 743 mmHg 85%
    10:00 +18°C° 0 mm 2 mps 743 mmHg 77%
    11:00 +20°C° 0 mm 1 mps 744 mmHg 70%
    12:00 +20°C° 0 mm 2 mps 744 mmHg 64%
    13:00 +21°C° 0 mm 2 mps 744 mmHg 59%
    14:00 +23°C° 0 mm 2 mps 744 mmHg 54%
    15:00 +23°C° 0 mm 2 mps 745 mmHg 56%
    16:00 +23°C° 0 mm 2 mps 745 mmHg 59%
    17:00 +22°C° 0 mm 1 mps 745 mmHg 61%
    18:00 +20°C° 0 mm 1 mps 745 mmHg 68%
    19:00 +18°C° 0 mm 1 mps 745 mmHg 75%
    20:00 +15°C° 0 mm 1 mps 746 mmHg 81%
    21:00 +15°C° 0 mm 1 mps 746 mmHg 84%
    22:00 +14°C° 0 mm 1 mps 746 mmHg 86%
    23:00 +13°C° 0 mm 1 mps 747 mmHg 88%

    Tomorrow, 17 August, Friday

    Time Temperature Precipitation Wind Pressure Humidity
    00:00 +13°C° 0 mm 1 mps 747 mmHg 89%
    01:00 +12°C° 0 mm 0 mps 747 mmHg 91%
    02:00 +11°C° 0 mm 0 mps 747 mmHg 92%
    03:00 +11°C° 0 mm 0 mps 748 mmHg 92%
    04:00 +11°C° 0 mm 0 mps 748 mmHg 91%
    05:00 +11°C° 0 mm 0 mps 748 mmHg 91%
    06:00 +14°C° 0 mm 1 mps 748 mmHg 83%
    07:00 +18°C° 0 mm 1 mps 749 mmHg 74%
    08:00 +20°C° 0 mm 1 mps 749 mmHg 66%
    09:00 +21°C° 0 mm 1 mps 749 mmHg 60%
    10:00 +22°C° 0 mm 1 mps 749 mmHg 54%
    11:00 +23°C° 0 mm 2 mps 749 mmHg 48%
    12:00 +24°C° 0 mm 2 mps 749 mmHg 47%
    13:00 +24°C° 0 mm 2 mps 748 mmHg 46%
    14:00 +25°C° 0 mm 2 mps 748 mmHg 45%
    15:00 +24°C° 0 mm 2 mps 748 mmHg 49%
    16:00 +24°C° 0 mm 1 mps 748 mmHg 53%
    17:00 +23°C° 0 mm 1 mps 748 mmHg 58%
    18:00 +21°C° 0 mm 1 mps 748 mmHg 63%
    19:00 +19°C° 0 mm 1 mps 748 mmHg 69%
    20:00 +16°C° 0 mm 1 mps 748 mmHg 75%
    21:00 +15°C° 0 mm 1 mps 748 mmHg 77%
    22:00 +14°C° 0 mm 1 mps 748 mmHg 78%
    23:00 +14°C° 0 mm 1 mps 748 mmHg 80%

    Day after tomorrow, 18 August, Saturday

    Time Temperature Precipitation Wind Pressure Humidity
    00:00 +13°C° 0 mm 1 mps 748 mmHg 82%
    01:00 +13°C° 0 mm 1 mps 748 mmHg 83%
    02:00 +12°C° 0 mm 1 mps 748 mmHg 85%
    03:00 +12°C° 0 mm 1 mps 748 mmHg 85%
    04:00 +12°C° 0 mm 1 mps 748 mmHg 86%
    05:00 +12°C° 0 mm 1 mps 748 mmHg 87%
    06:00 +14°C° 0 mm 1 mps 748 mmHg 80%
    07:00 +16°C° 0 mm 1 mps 748 mmHg 73%
    08:00 +18°C° 0 mm 2 mps 749 mmHg 66%
    09:00 +20°C° 0 mm 2 mps 749 mmHg 60%
    10:00 +21°C° 0 mm 2 mps 748 mmHg 54%
    11:00 +24°C° 0 mm 2 mps 748 mmHg 48%
    12:00 +24°C° 0 mm 2 mps 748 mmHg 47%
    13:00 +25°C° 0 mm 2 mps 748 mmHg 46%
    14:00 +25°C° 0 mm 2 mps 747 mmHg 45%
    15:00 +25°C° 0 mm 2 mps 747 mmHg 50%
    16:00 +24°C° 0 mm 2 mps 747 mmHg 54%
    17:00 +24°C° 0 mm 2 mps 747 mmHg 59%
    18:00 +21°C° 0 mm 2 mps 747 mmHg 66%
    19:00 +19°C° 0 mm 2 mps 747 mmHg 73%
    20:00 +17°C° 0 mm 2 mps 746 mmHg 80%
    21:00 +16°C° 0 mm 2 mps 746 mmHg 82%
    22:00 +16°C° 0 mm 2 mps 746 mmHg 84%
    23:00 +15°C° 0 mm 2 mps 746 mmHg 87%

    19 August, Sunday

    Time Temperature Precipitation Wind Pressure Humidity
    00:00 +15°C° 0 mm 2 mps 746 mmHg 89%
    01:00 +14°C° 0 mm 2 mps 746 mmHg 91%
    02:00 +14°C° 0 mm 2 mps 746 mmHg 93%
    03:00 +14°C° 0 mm 2 mps 746 mmHg 93%
    04:00 +14°C° 0 mm 2 mps 746 mmHg 93%
    05:00 +14°C° 0 mm 2 mps 746 mmHg 93%
    06:00 +15°C° 0 mm 2 mps 746 mmHg 86%
    07:00 +17°C° 0 mm 3 mps 746 mmHg 78%
    08:00 +19°C° 0 mm 3 mps 745 mmHg 70%
    09:00 +21°C° 0 mm 3 mps 745 mmHg 65%
    10:00 +22°C° 0 mm 4 mps 745 mmHg 60%
    11:00 +25°C° 0 mm 4 mps 745 mmHg 55%
    12:00 +25°C° 0.2 mm 4 mps 744 mmHg 58%
    13:00 +25°C° 0.2 mm 4 mps 744 mmHg 61%
    14:00 +25°C° 0.2 mm 4 mps 743 mmHg 65%
    15:00 +25°C° 0.6 mm 4 mps 743 mmHg 71%
    16:00 +24°C° 0.6 mm 3 mps 742 mmHg 78%
    17:00 +22°C° 0.6 mm 3 mps 742 mmHg 84%
    18:00 +21°C° 1 mm 3 mps 742 mmHg 87%
    19:00 +19°C° 1 mm 2 mps 742 mmHg 91%
    20:00 +18°C° 1 mm 2 mps 742 mmHg 94%
    21:00 +18°C° 0.3 mm 2 mps 742 mmHg 95%
    22:00 +17°C° 0.3 mm 2 mps 742 mmHg 96%
    23:00 +17°C° 0.3 mm 2 mps 742 mmHg 97%

    20 August, Monday

    Time Temperature Precipitation Wind Pressure Humidity
    00:00 +16°C° 0.1 mm 2 mps 742 mmHg 97%
    01:00 +16°C° 0.1 mm 2 mps 742 mmHg 97%
    02:00 +16°C° 0.1 mm 2 mps 742 mmHg 98%
    03:00 +15°C° 0.2 mm 2 mps 742 mmHg 98%
    04:00 +15°C° 0.2 mm 2 mps 743 mmHg 98%
    05:00 +15°C° 0.2 mm 2 mps 743 mmHg 98%
    06:00 +16°C° 0.1 mm 2 mps 743 mmHg 96%
    07:00 +16°C° 0.1 mm 2 mps 743 mmHg 94%
    08:00 +16°C° 0.1 mm 2 mps 743 mmHg 92%
    09:00 +17°C° 0 mm 2 mps 744 mmHg 84%
    10:00 +19°C° 0 mm 2 mps 744 mmHg 76%
    11:00 +20°C° 0 mm 2 mps 744 mmHg 67%
    12:00 +20°C° 0 mm 2 mps 744 mmHg 63%
    13:00 +21°C° 0 mm 2 mps 744 mmHg 58%
    14:00 +23°C° 0 mm 2 mps 744 mmHg 54%
    15:00 +21°C° 0 mm 2 mps 744 mmHg 56%
    16:00 +22°C° 0 mm 1 mps 744 mmHg 59%
    17:00 +22°C° 0 mm 1 mps 744 mmHg 62%
    18:00 +20°C° 0 mm 1 mps 744 mmHg 67%
    19:00 +18°C° 0 mm 1 mps 744 mmHg 73%
    20:00 +15°C° 0 mm 1 mps 744 mmHg 79%
    21:00 +14°C° 0 mm 1 mps 744 mmHg 82%
    22:00 +14°C° 0 mm 1 mps 744 mmHg 85%
    23:00 +13°C° 0 mm 1 mps 744 mmHg 88%

    21 August, Tuesday

    Time Temperature Precipitation Wind Pressure Humidity
    00:00 +11°C° 0 mm 0 mps 744 mmHg 89%
    01:00 +11°C° 0 mm 0 mps 743 mmHg 90%
    02:00 +11°C° 0 mm 0 mps 743 mmHg 91%
    03:00 +11°C° 0 mm 0 mps 743 mmHg 91%
    04:00 +12°C° 0 mm 1 mps 743 mmHg 91%
    05:00 +12°C° 0 mm 1 mps 743 mmHg 91%
    06:00 +14°C° 0 mm 1 mps 743 mmHg 84%
    07:00 +16°C° 0 mm 2 mps 743 mmHg 77%
    08:00 +18°C° 0 mm 2 mps 743 mmHg 70%
    09:00 +19°C° 0 mm 3 mps 742 mmHg 64%
    10:00 +21°C° 0 mm 3 mps 742 mmHg 58%
    11:00 +22°C° 0 mm 4 mps 742 mmHg 52%
    12:00 +22°C° 0 mm 4 mps 742 mmHg 52%
    13:00 +23°C° 0 mm 4 mps 741 mmHg 53%
    14:00 +23°C° 0 mm 4 mps 741 mmHg 54%
    15:00 +23°C° 0.1 mm 4 mps 741 mmHg 59%
    16:00 +24°C° 0.1 mm 3 mps 740 mmHg 65%
    17:00 +22°C° 0.1 mm 3 mps 740 mmHg 71%
    18:00 +21°C° 0.1 mm 3 mps 740 mmHg 78%
    19:00 +20°C° 0.1 mm 3 mps 740 mmHg 85%
    20:00 +18°C° 0.1 mm 3 mps 740 mmHg 91%
    21:00 +18°C° 0 mm 3 mps 740 mmHg 93%
    22:00 +18°C° 0 mm 3 mps 740 mmHg 94%
    23:00 +17°C° 0 mm 3 mps 740 mmHg 95%
    Show more